TimeEST,TemperatureF,Dew PointF,Humidity,Sea Level PressureIn,VisibilityMPH,Wind Direction,Wind SpeedMPH,Gust SpeedMPH,PrecipitationIn,Events,Conditions,WindDirDegrees,DateUTC
12:00 AM,28.4,19.4,69,30.05,15.0,NW,6.9,-,N/A,,Partly Cloudy,310,2012-11-09 05:00:00
1:00 AM,26,19,67,30.04,15,West,3.5,,,,Overcast,280,2012-11-09 06:00:00
1:00 AM,26.6,19.4,74,30.04,15.0,WNW,4.6,-,N/A,,Overcast,290,2012-11-09 06:00:00
2:00 AM,24.8,19.4,80,30.05,15.0,West,3.5,-,N/A,,Partly Cloudy,280,2012-11-09 07:00:00
3:00 AM,23.0,19.4,86,30.05,15.0,WSW,4.6,-,N/A,,Scattered Clouds,250,2012-11-09 08:00:00
4:00 AM,26.6,21.2,80,30.05,15.0,SW,3.5,-,N/A,,Overcast,230,2012-11-09 09:00:00
5:00 AM,26.6,21.2,80,30.06,15.0,SW,4.6,-,N/A,,Overcast,220,2012-11-09 10:00:00
6:00 AM,24.8,21.2,86,30.07,15.0,WSW,4.6,-,N/A,,Scattered Clouds,240,2012-11-09 11:00:00
7:00 AM,29,24,76,30.07,12,SSW,5.8,,,,Overcast,210,2012-11-09 12:00:00
7:00 AM,28.4,24.8,86,30.07,12.0,SSW,5.8,-,N/A,,Overcast,210,2012-11-09 12:00:00
8:00 AM,30.2,26.6,86,30.09,15.0,WSW,6.9,-,N/A,,Overcast,240,2012-11-09 13:00:00
9:00 AM,33.8,26.6,75,30.10,15.0,WSW,9.2,-,N/A,,Overcast,250,2012-11-09 14:00:00
10:00 AM,35.6,26.6,70,30.09,15.0,WSW,5.8,-,N/A,,Overcast,250,2012-11-09 15:00:00
11:00 AM,35.6,24.8,65,30.10,15.0,WSW,5.8,-,N/A,,Overcast,250,2012-11-09 16:00:00
12:00 PM,37.4,26.6,65,30.08,15.0,SSW,6.9,-,N/A,,Overcast,210,2012-11-09 17:00:00
1:00 PM,39,29,57,30.07,15,SW,6.9,,,,Overcast,220,2012-11-09 18:00:00
1:00 PM,39.2,28.4,65,30.07,15.0,SW,6.9,-,N/A,,Overcast,220,2012-11-09 18:00:00
2:00 PM,41.0,30.2,65,30.07,15.0,West,6.9,-,N/A,,Overcast,260,2012-11-09 19:00:00
3:00 PM,42.8,32.0,66,30.08,15.0,West,5.8,-,N/A,,Overcast,270,2012-11-09 20:00:00
4:00 PM,41.0,33.8,76,30.09,15.0,WNW,5.8,-,N/A,,Overcast,290,2012-11-09 21:00:00
5:00 PM,41.0,33.8,76,30.10,15.0,West,5.8,-,N/A,,Overcast,280,2012-11-09 22:00:00
6:00 PM,41.0,33.8,76,30.12,15.0,West,4.6,-,N/A,,Overcast,270,2012-11-09 23:00:00
7:00 PM,39,34,77,30.12,15,WSW,5.8,,,,Overcast,240,2012-11-10 00:00:00
7:00 PM,39.2,33.8,81,30.12,15.0,WSW,5.8,-,N/A,,Overcast,240,2012-11-10 00:00:00
8:00 PM,39.2,35.6,87,30.13,15.0,WSW,5.8,-,N/A,,Overcast,240,2012-11-10 01:00:00
9:00 PM,39.2,33.8,81,30.14,15.0,SW,5.8,-,N/A,,Overcast,230,2012-11-10 02:00:00
10:00 PM,39.2,33.8,81,30.15,15.0,WSW,5.8,-,N/A,,Overcast,250,2012-11-10 03:00:00
11:00 PM,37.4,33.8,87,30.16,15.0,WSW,6.9,-,N/A,,Mostly Cloudy,250,2012-11-10 04:00:00